Погода в Зунда Толге

Россия / Республика Калмыкия     45°36′38″N   44°15′38″E
темп.,
°C
ветер,
м/с
пор.,
м/с
влажн.,
%
обл.,
%
осадки,
мм/ч
давл.,
гПа
погр.,
м
8 мая, сб
сб800:00+14з23625 0.0 101815
03:00+12з22715 0.0 101811
06:00+15ю11665 0.0 101716
09:00+20юв334619 0.0 1017789
12:00+24юв443899 0.0 10151719
15:00+25юв5534100 0.0 10142232
18:00+22ююв4747100 0.0 1013151
21:00+18юв6124978 0.0 1013311
9 мая, вс
вс900:00+14юв4105587 0.0 1012218
03:00+11юв41066100 0.0 1011216
06:00+12юв3876100 0.0 1010292
09:00+17юв336899 0.0 1009540
12:00+22сз444694 0.0 10081440
15:00+16сз101376100 0.4 1010807
18:00+9зсз111586100 0.6 1014770
21:00+8зсз121689100 3.8 10171143
10 мая, пн
пн1000:00+9зсз91486100 3.5 10181211
03:00+8зсз9148284 3.6 1019967
06:00+8зсз9147752 0.0 10191024
09:00+12зсз9126087 0.1 10191677
12:00+15зсз11124077 0.0 10182409
15:00+14зсз10114567 0.0 10181958
18:00+12зсз795981 0.0 10181446
21:00+8зюз497618 0.1 1020280
11 мая, вт
вт1100:00+6юз498461 0.0 1020268
03:00+6ююз4884100 0.0 1020174
06:00+7ю467859 0.0 1021295
09:00+12юз235440 0.0 1020879
12:00+15вюв6746100 0.0 10201876
15:00+16вюв6742100 0.0 10201991
18:00+14в2255100 0.0 102035
21:00+12всв227055 0.1 102043
12 мая, ср
ср1200:00+11в23725 0.0 102017
03:00+9юв228441 0.0 101916
06:00+10вюв24825 0.0 1019137
09:00+16вюв57530 0.0 10191102
12:00+20вюв56390 0.0 10181677
15:00+21вюв56361 0.0 10171927
18:00+20в34430 0.0 1016184
21:00+15в33491 0.0 101623